STARLINK-11259, 60721

Orbit data source: Space-Track

STARLINK-11259, 60721 is a payload satellite owned by SpaceX/Seattle (US) in LEO that was launched on Wed, 28 Aug 2024 UTC via an FALCON 9 launch vehicle from the Air Force Eastern Test Range (AFETR). Payload-class satellites include a variety of spacecraft equipped with specific instruments for various scientific and technological missions. These include communications satellites like Starlink; space stations such as the ISS; scientific satellites like the Hubble; Earth observation satellites from companies like Planet Labs, Umbra, and HawkEye 360; GPS; miniature CubeSats for education and research; and military/defense satellites.

Loading next visibility...
Identifier
60721, 2024-152B
Orbit
LEO
Country
Flag of USUS
Related business
Manufacturer
SpaceX/Seattle
Mission
Operational Commercial Communications
Bus & Motor
STARLINK V2MD, Unknown motor
Mass
960 kg wet, ~910 kg dry
Launch date (UTC)
2024-08-28 (1 year ago)
Launch vehicle
FALCON 9
Launch site
Air Force Eastern Test Range (AFETR)
Object type
Payload
Rocket body
Debris
Shape & HBR
Box + 2 Pan, 18.1 m
Radar Cross Section
36.964 m², Large (>1 m²)

Expand to show TLE details & history
Last TLE update: 1 day ago

TLE from 1 day ago
0 STARLINK-11259
1 60721U 24152B   25312.41306346 -.00002791  00000-0 -18181-4 0  9994
2 60721  53.1594 354.3702 0001492  64.3686 295.7486 15.69706187 69789
Epoch: 2025-11-08T09:54Z
TLE epoch observation values (Epoch: 2025-11-08T09:54:48.682Z)
Latitude
-0.00004°
Longitude
157.82429°
Altitude
360.216 km
Speed
7.695 km/s
True Right ascension
23h 37m 28s
True Declination
0° 00' 00"
Sunlit
Object was in full shadow at epoch
Visualization orbit readout
Latitude
Unknown
Longitude
Unknown
Altitude
Unknown
Speed
Unknown
Apparent Right ascension
Unknown
Apparent Declination
Unknown
Sunlit
N/A
Visualization observer readout
Local Sidereal Time
09:13:09
Azimuth
Unknown
Elevation
Unknown
Doppler factor
Unknown
Orbital elements
Apogee altitude
361.004 km
Perigee altitude
358.993 km
Semi-major axis
6,738.135 km
Eccentricity
0.00015
Inclination
53.1594°
RAAN
354.3702°
Arg. of periapsis
64.3686°
True anomaly
295.7332°
Mean anomaly
295.7486°
Eccentric anomaly
295.7409°
Mean motion
3.92404 °/min
Orbital period
91.74 mins
BSTAR
-0.000018181
Loading maneuver chart data...
Computing Atmospheric mass density...
Loading historical data...
Loading historical data...
Loading historical data...
Loading historical data...
Loading historical data...
Loading historical data...
Loading historical data...

Documentation

Showing up to 5 results
|